[[[{"header":{"parameterUnit":"kt","parameterCategory":2,"dx":1,"dy":1,"la1":30.253999710083008,"la2":30.299108505249023,"lo1":-89.0895004272461,"lo2":-89.04439544677734,"nx":28,"ny":28,"refTime":"2022-10-23T21:00:00:Z","depth":0,"parameterNumber":1,"parameterNumberName":"U-component_of_WINDS"},"data":[-2.3819,-2.3922,-2.3987,-2.4135,-2.4218,-2.4331,-2.4392,-2.4478,-2.4563,-2.4705,-2.4798,-2.4874,-2.4985,-2.5113,-2.5217,-2.5249,-2.5289,-2.5279,-2.5318,-2.5305,-2.5308,-2.531,-2.5291,-2.5286,-2.5286,-2.5323,-2.5323,-2.5323,-2.3806,-2.3889,-2.3986,-2.4124,-2.4208,-2.4257,-2.4371,-2.4438,-2.4537,-2.4643,-2.4738,-2.4868,-2.498,-2.5097,-2.5215,-2.5265,-2.5296,-2.5293,-2.5291,-2.5308,-2.5296,-2.5274,-2.5267,-2.5267,-2.5267,-2.5267,-2.5267,-2.5267,-2.38,-2.3859,-2.398,-2.4086,-2.4173,-2.4265,-2.4333,-2.4425,-2.4521,-2.4652,-2.4711,-2.4825,-2.4943,-2.5117,-2.5191,-2.5282,-2.5297,-2.5314,-2.5319,-2.5322,-2.5317,-2.5259,-2.5305,-2.5305,-2.5305,-2.5306,-2.5306,0,-2.3816,-2.3867,-2.3964,-2.408,-2.4161,-2.4258,-2.4357,-2.4401,-2.453,-2.4604,-2.4716,-2.4792,-2.4941,-2.5055,-2.518,-2.5255,-2.5314,-2.5327,-2.5339,-2.5313,-2.5274,-2.5297,-2.5277,-2.5325,-2.5325,-2.5325,-2.5326,-2.5326,-2.3816,-2.3876,-2.4035,-2.4094,-2.4165,-2.4258,-2.4328,-2.4438,-2.4507,-2.4646,-2.4693,-2.4807,-2.4905,-2.5073,-2.5181,-2.5292,-2.5322,-2.5334,-2.5339,-2.5312,-2.5325,-2.532,-2.5328,-2.533,-2.533,-2.5329,-2.5329,0,-2.3811,-2.3917,-2.4031,-2.4182,-2.4222,-2.4279,-2.4409,-2.4472,-2.4555,-2.4654,-2.4683,-2.4813,-2.4921,-2.5028,-2.5172,-2.5224,-2.5323,-2.5348,-2.5284,-2.5295,-2.5317,-2.5314,-2.5368,-2.5382,-2.5385,-2.5385,-2.5385,0,-2.3853,-2.3927,-2.4082,-2.4142,-2.4229,-2.4338,-2.4421,-2.4501,-2.4604,-2.4683,-2.4767,-2.4839,-2.4964,-2.5051,-2.5128,-2.5228,-2.5254,-2.5301,-2.532,-2.5294,-2.5288,-2.5332,-2.5333,-2.536,-2.536,-2.536,-2.536,0,-2.3833,-2.4003,-2.4102,-2.4158,-2.4326,-2.437,-2.4442,-2.4558,-2.4625,-2.4729,-2.4774,-2.4887,-2.4948,-2.5035,-2.5132,-2.5132,-2.5256,-2.5276,-2.5303,-2.5301,-2.5325,-2.5322,-2.5344,-2.5359,-2.5359,-2.5359,-2.5359,0,-2.3884,-2.3986,-2.4113,-2.4256,-2.4296,-2.4361,-2.448,-2.456,-2.4677,-2.473,-2.4812,-2.4881,-2.4975,-2.4988,-2.5121,-2.5093,-2.5149,-2.5202,-2.5206,-2.5222,-2.5233,-2.5232,-2.524,-2.5246,-2.5235,-2.5234,-2.5234,0,-2.3834,-2.399,-2.4084,-2.4202,-2.4289,-2.4379,-2.4454,-2.4553,-2.4631,-2.4716,-2.4802,-2.4898,-2.493,-2.4974,-2.5026,-2.5118,-2.5153,-2.5116,-2.5239,-2.5242,-2.5206,-2.5215,-2.519,-2.5227,-2.5222,-2.5223,-2.5224,0,-2.3808,-2.4011,-2.4025,-2.4094,-2.4244,-2.4317,-2.4401,-2.4521,-2.4573,-2.4675,-2.475,-2.4886,-2.4917,-2.4989,-2.5057,-2.5105,-2.5132,-2.513,-2.5135,-2.5128,-2.5224,-2.52,-2.5206,-2.5167,-2.5169,-2.517,-2.5214,0,-2.3864,-2.3955,-2.3998,-2.4144,-2.4217,-2.4296,-2.4409,-2.4471,-2.453,-2.4609,-2.472,-2.4829,-2.4949,-2.4983,-2.504,-2.5115,-2.5119,-2.5149,-2.517,-2.5174,-2.5192,-2.5199,-2.5135,-2.5136,-2.5137,-2.5138,0,0,-2.379,-2.3923,-2.4023,-2.4109,-2.4177,-2.4268,-2.4343,-2.442,-2.4572,-2.4617,-2.4629,-2.4837,-2.4924,-2.5047,-2.5057,-2.5104,-2.5129,-2.5122,-2.5171,-2.5174,-2.5177,-2.5194,-2.52,-2.514,-2.514,-2.5141,-2.5141,0,-2.3834,-2.3921,-2.3993,-2.4077,-2.4205,-2.4286,-2.4303,-2.4445,-2.45,-2.4608,-2.4682,-2.4762,-2.4923,-2.5007,-2.5071,-2.5111,-2.5162,-2.5138,-2.5123,-2.5178,-2.5179,-2.5181,-2.5197,-2.5202,-2.5144,-2.5143,-2.5143,0,-2.383,-2.3935,-2.3981,-2.4139,-2.4223,-2.431,-2.436,-2.4448,-2.4514,-2.4608,-2.4714,-2.479,-2.491,-2.501,-2.5059,-2.5072,-2.5185,-2.5168,-2.5165,-2.5173,-2.5231,-2.5233,-2.5235,-2.5212,-2.5212,-2.5212,0,0,-2.3852,-2.3937,-2.4084,-2.4157,-2.4205,-2.4325,-2.4382,-2.4446,-2.4553,-2.4595,-2.4693,-2.4794,-2.489,-2.4951,-2.5046,-2.5139,-2.5173,-2.5172,-2.5169,-2.5166,-2.5172,-2.5229,-2.5231,-2.5211,-2.5211,-2.5211,0,0,-2.3863,-2.4036,-2.4076,-2.4175,-2.4274,-2.4423,-2.4464,-2.4516,-2.4613,-2.4617,-2.4729,-2.476,-2.4856,-2.4926,-2.4902,-2.5055,-2.5073,-2.5081,-2.5006,-2.5003,-2.5,-2.4982,-2.4968,0,0,0,0,0,-2.3966,-2.4015,-2.4049,-2.4083,-2.4281,-2.4404,-2.443,-2.4524,-2.4536,-2.4566,-2.4656,-2.4707,-2.4937,-2.4918,-2.4949,-2.4975,-2.52,-2.5202,-2.5204,-2.5129,-2.5125,-2.5122,0,0,0,0,0,0,-2.398,-2.4021,-2.4049,-2.4198,-2.4243,-2.4403,-2.4444,-2.4471,-2.4535,-2.4543,-2.4688,-2.4711,-2.4793,-2.4909,-2.4935,-2.4958,-2.4959,-2.5201,-2.5203,-2.5204,-2.5128,-2.5125,-2.5122,0,0,0,0,0,-2.3992,-2.4024,-2.4318,-2.4198,-2.4238,-2.4374,-2.4442,-2.4465,-2.4517,-2.4656,-2.4681,-2.4582,-2.4791,-2.482,-2.4925,-2.4943,-2.4941,-2.4951,-2.5202,-2.5203,-2.5205,-2.5126,0,0,0,0,0,0,-2.4,-2.4046,-2.4328,-2.4344,-2.4186,-2.4367,-2.4399,-2.446,-2.4628,-2.4653,-2.4555,-2.456,-2.4791,-2.4813,-2.4835,-2.4933,-2.4927,-2.4936,-2.4943,-2.5203,-2.5204,-2.5205,0,0,0,0,0,0,-2.403,-2.4059,-2.4336,-2.4316,-2.4331,-2.436,-2.4388,-2.449,-2.4628,-2.4518,-2.4527,-2.4555,-2.4757,-2.4808,-2.4826,-2.4981,-2.4915,-2.4925,-2.4931,-2.4935,-2.5204,-2.5205,0,0,0,0,0,0,-2.4044,-2.4069,-2.4313,-2.4324,-2.4336,-2.4519,-2.4452,-2.465,-2.4612,-2.4509,-2.4611,-2.461,-2.4751,-2.4771,-2.4819,-2.4966,-2.4977,-2.4916,-2.4922,-2.4927,-2.493,0,0,0,0,0,0,0,-2.4055,-2.3863,-2.4236,-2.433,-2.4341,-2.4488,-2.4492,-2.4497,-2.4611,-2.4611,-2.4611,-2.461,-2.4862,-2.4872,-2.4883,-2.4954,0,0,-2.4915,-2.4919,0,0,0,0,0,0,0,0,-2.3855,-2.3861,-2.4236,-2.4239,-2.4243,-2.4489,-2.4492,-2.4496,-2.4611,-2.4611,-2.4611,-2.4611,-2.4865,-2.4873,-2.4881,0,0,0,0,0,0,0,0,0,0,0,0,0,0,0,-2.4236,-2.4239,0,-2.4489,-2.4492,-2.4495,-2.4611,-2.4611,-2.4611,-2.4611,-2.4867,-2.4874,-2.4881,0,0,0,0,0,0,0,0,0,0,0,0,0,0,0,0,0,0,0,0,0,0,0,0,0,0,0,0,0,0,0,0,0,0,0,0,0,0,0,0,0,0,0,0,0,0,0,0,0,0,0,0,0,0,0,0,0,0,0,0,0,0,0,0,0,0,0,0,0]}],[{"header":{"parameterUnit":"kt","parameterCategory":2,"dx":1,"dy":1,"la1":30.253999710083008,"la2":30.299108505249023,"lo1":-89.0895004272461,"lo2":-89.04439544677734,"nx":28,"ny":28,"refTime":"2022-10-23T21:00:00:Z","depth":0,"parameterNumber":2,"parameterNumberName":"V-component_of_WINDS"},"data":[8.6877,8.7045,8.7109,8.7325,8.7417,8.7573,8.7647,8.7748,8.7842,8.8027,8.8143,8.8214,8.8324,8.8469,8.8591,8.8618,8.8663,8.868,8.8708,8.859,8.8576,8.8564,8.8531,8.869,8.8691,8.8821,8.8822,8.8823,8.6786,8.6881,8.7016,8.7187,8.7301,8.7324,8.7457,8.7548,8.7684,8.7799,8.7917,8.8081,8.8215,8.8321,8.8456,8.8527,8.854,8.8559,8.8552,8.8568,8.8445,8.841,8.8546,8.8546,8.8546,8.8546,8.8546,8.8546,8.6637,8.6735,8.6877,8.7023,8.7125,8.7237,8.7337,8.7428,8.7553,8.7711,8.7753,8.7903,8.8024,8.8214,8.8289,8.8402,8.8389,8.8425,8.8433,8.844,8.8441,8.8242,8.8427,8.8427,8.8427,8.8427,8.8427,0,8.6546,8.6593,8.6726,8.6878,8.6986,8.7106,8.7225,8.7289,8.7396,8.7494,8.7639,8.7731,8.7908,8.8044,8.8183,8.8253,8.8275,8.8284,8.8308,8.8289,8.8256,8.8272,8.8067,8.8277,8.8275,8.8275,8.8274,8.8274,8.6398,8.6505,8.6682,8.6767,8.6849,8.6981,8.7071,8.716,8.725,8.7403,8.748,8.7621,8.7738,8.7951,8.8042,8.8171,8.8181,8.8255,8.82,8.8179,8.8179,8.8171,8.818,8.8262,8.8264,8.8265,8.8266,0,8.6307,8.641,8.6594,8.6757,8.68,8.6905,8.704,8.7136,8.7211,8.7352,8.739,8.7502,8.7638,8.772,8.7887,8.7924,8.8085,8.8094,8.8045,8.805,8.8122,8.8113,8.8349,8.8383,8.8222,8.8223,8.8224,0,8.6218,8.6354,8.6498,8.6599,8.6752,8.6839,8.6985,8.7063,8.7173,8.7286,8.7331,8.7433,8.7521,8.7634,8.7688,8.7834,8.7866,8.7901,8.7913,8.7895,8.789,8.7936,8.7926,8.7939,8.7938,8.7937,8.7936,0,8.6065,8.63,8.6468,8.6536,8.672,8.6794,8.6871,8.6995,8.7079,8.7201,8.7256,8.7389,8.7461,8.756,8.7629,8.7588,8.781,8.7768,8.7845,8.7843,8.7886,8.7881,8.8075,8.7934,8.7934,8.7934,8.7933,0,8.6006,8.614,8.6368,8.6521,8.6578,8.6685,8.6828,8.6939,8.7064,8.7109,8.7204,8.724,8.7378,8.733,8.7518,8.7446,8.7511,8.7558,8.7565,8.7578,8.7521,8.7615,8.7795,8.7815,8.7595,8.7593,8.759,0,8.5801,8.6059,8.6138,8.6349,8.6479,8.6525,8.6644,8.6754,8.6824,8.6938,8.7011,8.7137,8.7119,8.7169,8.7253,8.7329,8.7423,8.7319,8.7468,8.7473,8.7433,8.7602,8.7607,8.7748,8.7555,8.7559,8.7562,0,8.5654,8.5883,8.5915,8.5997,8.6164,8.6271,8.6408,8.6557,8.6629,8.6747,8.686,8.704,8.7033,8.7114,8.7156,8.7238,8.7362,8.7217,8.7221,8.7237,8.7545,8.755,8.7574,8.7371,8.7375,8.7378,8.7534,0,8.554,8.5682,8.5775,8.5954,8.6051,8.6188,8.6283,8.6371,8.6406,8.6476,8.6643,8.6749,8.6891,8.694,8.6971,8.7135,8.7118,8.7108,8.7062,8.7173,8.7226,8.7248,8.6977,8.6976,8.6975,8.6975,0,0,8.5316,8.5522,8.5603,8.5744,8.583,8.5875,8.6012,8.6098,8.6271,8.6326,8.6305,8.6571,8.6657,8.6847,8.689,8.6947,8.6982,8.6939,8.7121,8.7137,8.7152,8.7207,8.7229,8.6974,8.6973,8.6973,8.6973,0,8.5294,8.5398,8.5538,8.5635,8.5781,8.5851,8.5884,8.6032,8.6083,8.625,8.6275,8.6384,8.6594,8.6681,8.6752,8.6921,8.6928,8.6957,8.7019,8.7111,8.7128,8.7143,8.72,8.722,8.6971,8.6971,8.6971,0,8.5165,8.5281,8.5359,8.5563,8.5657,8.5787,8.5767,8.5905,8.6,8.6029,8.6192,8.6262,8.6384,8.6555,8.6633,8.6613,8.6875,8.6807,8.6814,8.6822,8.6916,8.6936,8.6954,8.6715,8.6714,8.6713,0,0,8.5131,8.5265,8.5413,8.5565,8.5623,8.5728,8.5805,8.5849,8.5966,8.6011,8.6101,8.6207,8.633,8.6408,8.6526,8.6701,8.6729,8.6772,8.6785,8.6794,8.6807,8.6903,8.6923,8.6708,8.6708,8.6708,0,0,8.5112,8.5294,8.5312,8.5502,8.5616,8.5765,8.5851,8.5873,8.5991,8.5984,8.6054,8.6085,8.6246,8.6311,8.624,8.651,8.6464,8.6483,8.6461,8.6478,8.649,8.6468,8.6225,0,0,0,0,0,8.514,8.5273,8.5287,8.5334,8.5586,8.5759,8.5791,8.5858,8.5826,8.5892,8.597,8.5975,8.6287,8.6227,8.6266,8.6342,8.6649,8.666,8.667,8.6684,8.67,8.6714,0,0,0,0,0,0,8.5158,8.5215,8.5284,8.5439,8.5496,8.5755,8.5715,8.5737,8.582,8.582,8.5961,8.598,8.6033,8.621,8.6245,8.6316,8.6214,8.6653,8.6662,8.667,8.6689,8.6703,8.6714,0,0,0,0,0,8.5174,8.5219,8.5609,8.5437,8.5487,8.5608,8.5711,8.5729,8.5793,8.5914,8.5934,8.5837,8.6034,8.6067,8.6231,8.6299,8.619,8.6203,8.6659,8.6666,8.6672,8.6696,0,0,0,0,0,0,8.5185,8.5234,8.562,8.5637,8.5393,8.5595,8.5629,8.5721,8.5883,8.5904,8.5792,8.579,8.6036,8.6061,8.6087,8.629,8.6171,8.6184,8.6192,8.6664,8.667,8.6675,0,0,0,0,0,0,8.5209,8.5248,8.5629,8.557,8.5581,8.5582,8.5613,8.5759,8.5884,8.5752,8.5755,8.5789,8.5994,8.6058,8.6078,8.6304,8.6156,8.6168,8.6177,8.6182,8.6669,8.6673,0,0,0,0,0,0,8.5227,8.526,8.5565,8.5574,8.5583,8.5782,8.5711,8.5963,8.5843,8.5744,8.5833,8.5828,8.599,8.6011,8.6071,8.6289,8.63,8.6156,8.6165,8.6171,8.6175,0,0,0,0,0,0,0,8.5241,8.5005,8.5519,8.5578,8.5586,8.5797,8.5802,8.5807,8.5842,8.5838,8.5834,8.583,8.6085,8.6099,8.6112,8.6277,0,0,8.6155,8.6161,0,0,0,0,0,0,0,0,8.4993,8.5002,8.5519,8.5523,8.5526,8.5798,8.5802,8.5806,8.5841,8.5838,8.5835,8.5832,8.6089,8.61,8.6111,0,0,0,0,0,0,0,0,0,0,0,0,0,0,0,8.552,8.5523,0,8.5799,8.5802,8.5805,8.5841,8.5838,8.5835,8.5833,8.6092,8.6101,8.611,0,0,0,0,0,0,0,0,0,0,0,0,0,0,0,0,0,0,0,0,0,0,0,0,0,0,0,0,0,0,0,0,0,0,0,0,0,0,0,0,0,0,0,0,0,0,0,0,0,0,0,0,0,0,0,0,0,0,0,0,0,0,0,0,0,0,0,0,0]}]]]